Date String (YYYY-MM-DD hh:mm:ss) UTC,Instrument flags,Ambient pressure (hPa),Sample flow (lpm),Bypass flow (lpm),Sample temperature (°C),Ambient temperature (°C),ASC tube jacket temperature (°C),LED temperature (°C),Box temperature (°C),Sample RH (%),Span deviation,Mass concentration (μg/m³),Mass concentration (μg/m³),Mass concentration (μg/m³)
DateTimeUTC,F1_M11,P_M11,Q1_M11,Q2_M11,T1_M11,T2_M11,T3_M11,T4_M11,T5_M11,U1_M11,ZSPAN_M11,X0_M11,X2_M11,X1_M11
2021-12-15 16:00:00,,0802.3,5.00,0.00,22.1,20.9,00.0,31.3,23.7,11.5,0000.0,0020.78,0002.47,0000.47
2021-12-15 16:01:00,,0802.4,4.99,0.00,22.0,20.9,00.0,31.3,23.6,11.5,0000.0,0022.01,0002.63,0000.50
2021-12-15 16:02:00,,0802.8,5.01,0.00,22.0,20.8,00.0,31.2,23.6,11.4,0000.0,0022.35,0002.67,0000.51
2021-12-15 16:03:00,,0802.8,5.00,0.00,22.0,20.8,00.0,31.2,23.7,11.6,0000.0,0020.32,0002.54,0000.51
2021-12-15 16:04:00,,0802.9,5.00,0.00,22.0,20.8,00.0,31.2,23.6,11.6,0000.0,0019.28,0002.50,0000.50
2021-12-15 16:05:00,,0802.8,5.00,0.00,21.9,20.9,00.0,31.2,23.5,11.6,0000.0,0018.11,0002.40,0000.50
2021-12-15 16:06:00,,0802.5,5.00,0.00,21.9,20.8,00.0,31.2,23.5,11.4,0000.0,0017.80,0002.34,0000.48
2021-12-15 16:07:00,,0802.6,5.01,0.00,21.9,21.0,00.0,31.2,23.6,11.4,0000.0,0018.41,0002.38,0000.49
2021-12-15 16:08:00,,0802.5,5.00,0.00,22.0,21.7,00.0,31.2,23.9,11.2,0000.0,0018.85,0002.48,0000.49
2021-12-15 16:09:00,,0802.5,5.00,0.00,22.2,22.6,00.0,31.2,24.2,11.1,0000.0,0016.68,0002.39,0000.49
2021-12-15 16:10:00,,0802.6,4.99,0.00,22.3,22.9,00.0,31.3,24.4,11.2,0000.0,0011.93,0002.21,0000.47
2021-12-15 16:11:00,,0802.5,5.02,0.00,22.4,22.7,00.0,31.3,24.4,11.3,0000.0,0011.54,0002.04,0000.44
2021-12-15 16:12:00,,0802.7,5.01,0.00,22.4,22.5,00.0,31.3,24.3,11.4,0000.0,0010.15,0001.81,0000.40
2021-12-15 16:13:00,,0802.4,5.00,0.00,22.4,22.3,00.0,31.3,24.3,11.5,0000.0,0009.84,0001.73,0000.38
2021-12-15 16:14:00,,0802.7,5.00,0.00,22.4,22.0,00.0,31.3,24.2,11.4,0000.0,0010.17,0001.74,0000.36
2021-12-15 16:15:00,,0802.8,5.01,0.00,22.4,21.9,00.0,31.3,24.1,11.5,0000.0,0010.35,0001.74,0000.35
2021-12-15 16:16:00,,0802.6,4.99,0.00,22.4,21.8,00.0,31.4,24.1,11.6,0000.0,0010.66,0001.75,0000.34
2021-12-15 16:17:00,,0802.5,4.99,0.00,22.3,21.6,00.0,31.4,24.0,11.5,0000.0,0010.79,0001.73,0000.33
2021-12-15 16:18:00,,0802.3,5.00,0.00,22.3,21.5,00.0,31.4,24.0,11.5,0000.0,0010.38,0001.68,0000.31
2021-12-15 16:19:00,,0802.2,5.01,0.00,22.3,21.5,00.0,31.4,24.0,11.6,0000.0,0009.44,0001.61,0000.30
2021-12-15 16:20:00,,0802.3,5.01,0.00,22.3,21.4,00.0,31.3,24.0,11.6,0000.0,0009.65,0001.68,0000.30
2021-12-15 16:21:00,,0802.2,5.00,0.00,22.3,21.3,00.0,31.3,24.0,11.6,0000.0,0010.33,0001.77,0000.31
2021-12-15 16:22:00,,0802.5,4.99,0.00,22.2,21.2,00.0,31.3,23.9,11.6,0000.0,0009.94,0002.11,0000.34
2021-12-15 16:23:00,,0802.4,5.01,0.00,22.2,21.1,00.0,31.3,23.9,11.6,0000.0,0011.02,0002.44,0000.37
2021-12-15 16:24:00,,0802.5,4.99,0.00,22.2,21.1,00.0,31.3,23.9,11.8,0000.0,0012.78,0002.53,0000.37
2021-12-15 16:25:00,,0802.5,5.00,0.00,22.2,21.0,00.0,31.3,23.8,11.9,0000.0,0014.60,0002.70,0000.39
2021-12-15 16:26:00,,0802.6,5.00,0.00,22.1,21.0,00.0,31.3,23.7,11.9,0000.0,0015.88,0002.85,0000.41
2021-12-15 16:27:00,,0802.5,5.01,0.00,22.1,21.0,00.0,31.2,23.7,11.8,0000.0,0017.26,0002.99,0000.42
2021-12-15 16:28:00,,0802.2,4.99,0.00,22.1,21.6,00.0,31.3,23.9,11.8,0000.0,0018.08,0003.12,0000.44
2021-12-15 16:29:00,,0802.2,5.00,0.00,22.3,22.4,00.0,31.3,24.2,11.9,0000.0,0019.59,0003.33,0000.48
2021-12-15 16:30:00,,0802.1,5.01,0.00,22.4,23.0,00.0,31.4,24.5,11.9,0000.0,0020.39,0003.43,0000.50
2021-12-15 16:31:00,,0802.2,5.00,0.00,22.5,22.8,00.0,31.4,24.5,11.9,0000.0,0021.35,0003.52,0000.51
2021-12-15 16:32:00,,0802.3,5.01,0.00,22.5,22.6,00.0,31.4,24.4,11.9,0000.0,0021.37,0003.52,0000.51
2021-12-15 16:33:00,,0802.4,5.00,0.00,22.5,22.3,00.0,31.4,24.3,11.9,0000.0,0021.96,0003.41,0000.49
2021-12-15 16:34:00,,0802.5,4.99,0.00,22.5,22.1,00.0,31.4,24.3,12.0,0000.0,0021.81,0003.31,0000.48
2021-12-15 16:35:00,,0802.3,5.01,0.00,22.5,21.9,00.0,31.4,24.2,12.1,0000.0,0020.27,0003.34,0000.49
2021-12-15 16:36:00,,0802.5,5.01,0.00,22.4,21.7,00.0,31.4,24.1,11.9,0000.0,0020.91,0003.68,0000.56
2021-12-15 16:37:00,,0802.3,4.98,0.00,22.4,21.6,00.0,31.4,24.1,11.9,0000.0,0021.13,0003.85,0000.59
2021-12-15 16:38:00,,0802.3,5.01,0.00,22.4,21.4,00.0,31.4,24.0,11.9,0000.0,0020.75,0003.83,0000.60
2021-12-15 16:39:00,,0802.2,5.00,0.00,22.3,21.3,00.0,31.4,24.0,12.0,0000.0,0021.21,0003.84,0000.63
2021-12-15 16:40:00,,0802.1,4.99,0.00,22.3,21.2,00.0,31.4,23.9,12.1,0000.0,0020.26,0003.71,0000.62
2021-12-15 16:41:00,,0802.2,5.00,0.00,22.3,21.2,00.0,31.4,23.9,12.1,0000.0,0020.46,0003.70,0000.63
2021-12-15 16:42:00,,0802.1,5.00,0.00,22.2,21.1,00.0,31.4,23.9,12.2,0000.0,0021.57,0003.74,0000.64
2021-12-15 16:43:00,,0802.0,5.00,0.00,22.2,21.0,00.0,31.3,23.8,12.3,0000.0,0022.86,0003.85,0000.67
2021-12-15 16:44:00,,0802.1,4.99,0.00,22.2,20.9,00.0,31.3,23.8,12.3,0000.0,0022.46,0003.89,0000.69
2021-12-15 16:45:00,,0802.2,4.99,0.00,22.1,20.9,00.0,31.3,23.7,12.1,0000.0,0022.46,0003.88,0000.71
2021-12-15 16:46:00,,0802.1,5.00,0.00,22.2,21.4,00.0,31.3,23.9,11.8,0000.0,0024.26,0003.94,0000.72
2021-12-15 16:47:00,,0802.1,4.97,0.00,22.3,22.4,00.0,31.3,24.2,11.6,0000.0,0024.34,0003.79,0000.68
2021-12-15 16:48:00,,0802.3,5.01,0.00,22.4,23.1,00.0,31.4,24.5,11.4,0000.0,0024.28,0003.62,0000.66
2021-12-15 16:49:00,,0802.2,5.00,0.00,22.5,22.9,00.0,31.4,24.5,11.3,0000.0,0024.82,0003.64,0000.65
2021-12-15 16:50:00,,0801.9,4.99,0.00,22.6,22.6,00.0,31.4,24.4,11.3,0000.0,0038.65,0003.82,0000.65
2021-12-15 16:51:00,,0801.6,5.01,0.00,22.5,22.4,00.0,31.4,24.3,11.1,0000.0,0090.64,0004.54,0000.74
2021-12-15 16:52:00,,0801.8,5.00,0.00,22.5,22.0,00.0,31.4,24.2,11.0,0000.0,0091.12,0004.61,0000.73
2021-12-15 16:53:00,,0801.6,5.01,0.00,22.5,21.8,00.0,31.4,24.1,11.1,0000.0,0090.63,0004.62,0000.73
2021-12-15 16:54:00,,0801.6,5.01,0.00,22.4,21.6,00.0,31.4,24.1,10.9,0000.0,0091.49,0004.60,0000.72
2021-12-15 16:55:00,,0801.6,4.99,0.00,22.4,21.5,00.0,31.4,24.0,10.9,0000.0,0093.62,0004.68,0000.73
2021-12-15 16:56:00,,0801.5,5.01,0.00,22.4,21.4,00.0,31.4,24.0,10.9,0000.0,0093.91,0004.86,0000.75
2021-12-15 16:57:00,,0801.5,5.01,0.00,22.3,21.2,00.0,31.4,23.9,10.8,0000.0,0093.45,0004.92,0000.75
2021-12-15 16:58:00,,0801.6,5.01,0.00,22.3,21.1,00.0,31.4,23.9,10.6,0000.0,0092.37,0004.85,0000.74
2021-12-15 16:59:00,,0801.8,4.99,0.00,22.2,21.0,00.0,31.3,23.8,10.4,0000.0,0093.90,0004.97,0000.76
